Miscellaneous Local Product
Issued by NWS Hastings, NE

Home | Current Version | Previous Version | Text Only | Print | Product List | Glossary On
Versions: 1 2 3 4 5 6 7 8 9 10 11 12 13 14 15 16 17 18 19 20 21 22 23 24 25 26 27 28 29 30 31 32 33 34 35 36 37 38 39 40 41 42 43 44 45 46 47 48 49 50
000
AXUS43 KGID 272002
MISGRI

GID CWA HOURLY WEATHER ROUNDUP
NATIONAL WEATHER SERVICE HASTINGS NE
300 PM CDT FRI MAY 27 2016

NOTE: "FAIR" INDICATES FEW OR NO CLOUDS BELOW 12,000 FEET WITH NO
SIGNIFICANT WEATHER AND/OR OBSTRUCTIONS TO VISIBILITY.

...SOUTH CENTRAL NEBRASKA...

CITY           SKY/WX    TMP DP  RH WIND       PRES   REMARKS
GRAND ISLAND   MOSUNNY   69  60  73 NE7       29.74F
HASTINGS       CLOUDY    68  58  70 E9        29.73F
KEARNEY        CLOUDY    66  57  72 E8        29.75F
ORD            CLOUDY    70  56  61 VRB3      29.76F
YORK           MOSUNNY   70  59  68 E7        29.74F
AURORA         SUNNY     69  60  72 E9        29.74F
LEXINGTON      CLOUDY    63  56  77 E6        29.77S
HOLDREGE       CLOUDY    64  57  80 E10G16    29.76S
HEBRON         CLOUDY    71  61  70 E8        29.72F

...NEBRASKA PANHANDLE...

CITY           SKY/WX    TMP DP  RH WIND       PRES   REMARKS
CHADRON        CLOUDY    58  49  72 NE7       29.88R
ALLIANCE       LGT RAIN  55  50  83 NE12      29.87F
SCOTTSBLUFF    CLOUDY    57  44  62 E10       29.90R
SIDNEY         CLOUDY    56  47  71 N17       29.88S

...WESTERN AND NORTH CENTRAL NEBRASKA...

CITY           SKY/WX    TMP DP  RH WIND       PRES   REMARKS
VALENTINE      CLOUDY    66  48  52 NE12      29.83F
AINSWORTH      CLOUDY    63  51  64 NE12      29.82F
ONEILL         MOSUNNY   69  58  67 N10       29.78F
BROKEN BOW     LGT RAIN  65  59  81 NE9       29.77F
IMPERIAL       CLOUDY    59  53  80 NE15      29.78S THUNDER
NORTH PLATTE   LGT RAIN  61  53  75 NE14      29.80R
MCCOOK         CLOUDY    61  57  87 NE14      29.76F

...EASTERN NEBRASKA...

CITY           SKY/WX    TMP DP  RH WIND       PRES   REMARKS
NORFOLK        CLOUDY    72  56  57 S8        29.75F
SO SIOUX CITY  CLOUDY    76  60  57 SE5       29.74F
TEKAMAH        PTSUNNY   78  56  46 S7        29.73F
COLUMBUS       MOSUNNY   72  54  53 CALM      29.75F
ALBION         PTSUNNY   72  55  55 CALM      29.74F
OMAHA EPPLEY   PTSUNNY   76  61  59 E7        29.73F
OFFUTT AFB     SUNNY     75  61  61 VRB6      29.73F
MILLARD        MOSUNNY   75  61  61 CALM      29.74F
LINCOLN        MOSUNNY   76  59  55 VRB3      29.74F
NEBRASKA CITY  MOSUNNY   74  62  66 NE3       29.75S
BEATRICE       PTSUNNY   73  61  64 E5        29.73S
FALLS CITY     MOSUNNY   77  64  64 CALM      29.72F

...NORTHERN KANSAS...

CITY           SKY/WX    TMP DP  RH WIND       PRES   REMARKS
GOODLAND       LGT RAIN  58  55  90 NE18      29.75S
HILL CITY      CLOUDY    62  59  90 NE10      29.72F
NORTON         CLOUDY    61  54  77 NE10      29.74F
PHILLIPSBURG   CLOUDY    63  63 100 NE9       29.72F FOG
SMITH CENTER   CLOUDY    63  59  88 NE6       29.72F
BELOIT         CLOUDY    73  64  73 E5        29.67F
HAYS           PTSUNNY   43 N/A N/A NE10      29.68S
RUSSELL        CLOUDY    70  64  81 NE8       29.65F
CONCORDIA      CLOUDY    74  63  68 SE10      29.69F
SALINA         MOSUNNY   79  65  62 SE14      29.67F
TOPEKA         CLOUDY    73  65  75 SE9       29.74R



USA.gov is the U.S. government's official web portal to all federal, state and local government web resources and services.